Time,TemperatureF,DewpointF,PressureIn,WindDirection,WindDirectionDegrees,WindSpeedMPH,WindSpeedGustMPH,Humidity,HourlyPrecipIn,Conditions,Clouds,dailyrainin,SoftwareType,DateUTC
2013-03-08 00:04:00,41.9,37.4,29.85,ESE,112,2.0,2.0,84,0.00,,---,0.00,VWS V14.01,2013-03-08 08:04:00,
2013-03-08 00:09:00,41.7,37.2,29.85,SE,135,1.3,1.3,84,0.00,,---,0.00,VWS V14.01,2013-03-08 08:09:00,
2013-03-08 00:14:00,41.7,37.5,29.85,ESE,112,2.5,2.9,85,0.00,,---,0.00,VWS V14.01,2013-03-08 08:14:00,
2013-03-08 00:19:00,41.7,37.5,29.85,ESE,112,1.6,2.0,85,0.00,,---,0.00,VWS V14.01,2013-03-08 08:19:00,
2013-03-08 00:24:00,41.5,37.1,29.85,East,90,0.0,1.6,84,0.00,,---,0.00,VWS V14.01,2013-03-08 08:24:00,
2013-03-08 00:29:00,41.4,36.9,29.85,ESE,112,1.6,1.6,84,0.00,,---,0.00,VWS V14.01,2013-03-08 08:29:00,
2013-03-08 00:34:00,41.4,36.9,29.85,ESE,112,2.0,2.0,84,0.00,,---,0.00,VWS V14.01,2013-03-08 08:34:00,
2013-03-08 00:39:00,41.2,36.7,29.85,ENE,68,0.0,1.3,84,0.00,,---,0.00,VWS V14.01,2013-03-08 08:39:00,
2013-03-08 00:44:00,41.0,36.5,29.85,SE,135,0.0,0.0,84,0.00,,---,0.00,VWS V14.01,2013-03-08 08:44:00,
2013-03-08 00:49:00,41.0,36.5,29.85,East,90,0.0,0.0,84,0.00,,---,0.00,VWS V14.01,2013-03-08 08:49:00,
2013-03-08 00:54:00,40.8,36.4,29.85,ENE,68,0.0,0.0,84,0.00,,---,0.00,VWS V14.01,2013-03-08 08:54:00,
2013-03-08 00:59:00,40.8,36.4,29.85,NE,45,0.0,1.6,84,0.00,,---,0.00,VWS V14.01,2013-03-08 08:59:00,
2013-03-08 01:04:00,40.6,36.2,29.85,SSE,158,0.0,0.0,84,0.00,,---,0.00,VWS V14.01,2013-03-08 09:04:00,
2013-03-08 01:09:00,40.6,36.2,29.85,NNW,338,0.9,1.6,84,0.00,,---,0.00,VWS V14.01,2013-03-08 09:09:00,
2013-03-08 01:14:00,40.5,36.0,29.85,NNE,22,0.0,0.0,84,0.00,,---,0.00,VWS V14.01,2013-03-08 09:14:00,
2013-03-08 01:19:00,40.3,35.8,29.85,SSE,158,0.0,0.0,84,0.00,,---,0.00,VWS V14.01,2013-03-08 09:19:00,
2013-03-08 01:24:00,40.3,36.1,29.85,SSE,158,0.0,0.0,85,0.00,,---,0.00,VWS V14.01,2013-03-08 09:24:00,
2013-03-08 01:29:00,40.3,36.1,29.85,East,90,1.6,2.0,85,0.00,,---,0.00,VWS V14.01,2013-03-08 09:29:00,
2013-03-08 01:34:00,40.3,36.1,29.85,East,90,0.0,0.0,85,0.00,,---,0.00,VWS V14.01,2013-03-08 09:34:00,
2013-03-08 01:39:00,40.1,36.0,29.85,SSE,158,0.0,0.0,85,0.00,,---,0.00,VWS V14.01,2013-03-08 09:39:00,
2013-03-08 01:44:00,39.9,35.8,29.85,ENE,68,0.0,0.0,85,0.00,,---,0.00,VWS V14.01,2013-03-08 09:44:00,
2013-03-08 01:49:00,39.9,35.8,29.82,East,90,0.0,1.1,85,0.00,,---,0.00,VWS V14.01,2013-03-08 09:49:00,
2013-03-08 01:54:00,39.7,35.3,29.82,SE,135,0.0,1.3,84,0.00,,---,0.00,VWS V14.01,2013-03-08 09:54:00,
2013-03-08 01:59:00,39.7,35.6,29.82,ESE,112,1.6,1.6,85,0.00,,---,0.00,VWS V14.01,2013-03-08 09:59:00,
2013-03-08 02:04:00,39.7,35.6,29.82,ESE,112,0.0,1.1,85,0.00,,---,0.00,VWS V14.01,2013-03-08 10:04:00,
2013-03-08 02:09:00,39.7,35.6,29.82,SE,135,1.3,1.3,85,0.00,,---,0.00,VWS V14.01,2013-03-08 10:09:00,
2013-03-08 02:14:00,39.7,35.6,29.82,SE,135,0.0,1.3,85,0.00,,---,0.00,VWS V14.01,2013-03-08 10:14:00,
2013-03-08 02:19:00,39.7,35.6,29.85,SE,135,1.3,2.2,85,0.00,,---,0.00,VWS V14.01,2013-03-08 10:19:00,
2013-03-08 02:24:00,39.6,35.4,29.85,SE,135,0.0,0.0,85,0.00,,---,0.00,VWS V14.01,2013-03-08 10:24:00,
2013-03-08 02:29:00,39.6,35.4,29.85,SE,135,2.0,2.2,85,0.00,,---,0.00,VWS V14.01,2013-03-08 10:29:00,
2013-03-08 02:34:00,39.6,35.4,29.85,SE,135,1.1,2.2,85,0.00,,---,0.00,VWS V14.01,2013-03-08 10:34:00,
2013-03-08 02:39:00,39.6,35.7,29.85,East,90,0.0,0.0,86,0.00,,---,0.00,VWS V14.01,2013-03-08 10:39:00,
2013-03-08 02:44:00,39.6,35.4,29.82,SE,135,0.0,0.0,85,0.00,,---,0.00,VWS V14.01,2013-03-08 10:44:00,
2013-03-08 02:49:00,39.4,35.2,29.82,SE,135,0.0,0.0,85,0.00,,---,0.00,VWS V14.01,2013-03-08 10:49:00,
2013-03-08 02:55:00,39.4,35.2,29.82,SE,135,0.0,0.0,85,0.00,,---,0.00,VWS V14.01,2013-03-08 10:55:00,
2013-03-08 03:00:00,39.4,35.2,29.82,ESE,112,0.0,0.0,85,0.00,,---,0.00,VWS V14.01,2013-03-08 11:00:00,
2013-03-08 03:05:00,39.4,35.2,29.82,ESE,112,1.6,1.6,85,0.00,,---,0.00,VWS V14.01,2013-03-08 11:05:00,
2013-03-08 03:10:00,39.4,35.2,29.82,ESE,112,1.3,2.0,85,0.00,,---,0.00,VWS V14.01,2013-03-08 11:10:00,
2013-03-08 03:15:00,39.4,35.2,29.82,NE,45,0.0,0.0,85,0.00,,---,0.00,VWS V14.01,2013-03-08 11:15:00,
2013-03-08 03:20:00,39.2,35.1,29.82,ENE,68,1.6,1.6,85,0.00,,---,0.00,VWS V14.01,2013-03-08 11:20:00,
2013-03-08 03:25:00,39.2,35.1,29.82,SSE,158,0.0,2.0,85,0.00,,---,0.00,VWS V14.01,2013-03-08 11:25:00,
2013-03-08 03:30:00,39.0,35.2,29.82,ENE,68,0.0,0.0,86,0.00,,---,0.00,VWS V14.01,2013-03-08 11:30:00,
2013-03-08 03:35:00,38.8,35.0,29.82,ENE,68,0.9,0.9,86,0.00,,---,0.00,VWS V14.01,2013-03-08 11:35:00,
2013-03-08 03:40:00,38.7,34.5,29.82,East,90,0.0,1.3,85,0.00,,---,0.00,VWS V14.01,2013-03-08 11:40:00,
2013-03-08 03:45:00,38.7,34.5,29.82,ESE,112,1.3,1.3,85,0.00,,---,0.00,VWS V14.01,2013-03-08 11:45:00,
2013-03-08 03:50:00,38.5,34.4,29.82,ESE,112,1.6,2.0,85,0.00,,---,0.00,VWS V14.01,2013-03-08 11:50:00,
2013-03-08 03:55:00,38.5,34.4,29.82,ESE,112,2.0,2.0,85,0.00,,---,0.00,VWS V14.01,2013-03-08 11:55:00,
2013-03-08 04:00:00,38.5,34.4,29.82,ESE,112,1.6,2.0,85,0.00,,---,0.00,VWS V14.01,2013-03-08 12:00:00,
2013-03-08 04:05:00,38.5,34.7,29.82,SE,135,1.1,1.6,86,0.00,,---,0.00,VWS V14.01,2013-03-08 12:05:00,
2013-03-08 04:10:00,38.5,34.7,29.82,SE,135,0.0,1.6,86,0.00,,---,0.00,VWS V14.01,2013-03-08 12:10:00,
2013-03-08 04:15:00,38.3,34.5,29.82,ESE,112,2.0,2.0,86,0.00,,---,0.00,VWS V14.01,2013-03-08 12:15:00,
2013-03-08 04:20:00,38.3,34.5,29.82,ESE,112,2.0,2.5,86,0.00,,---,0.00,VWS V14.01,2013-03-08 12:20:00,
2013-03-08 04:25:00,38.5,34.7,29.82,ESE,112,2.2,2.9,86,0.00,,---,0.00,VWS V14.01,2013-03-08 12:25:00,
2013-03-08 04:30:00,38.5,34.7,29.82,East,90,0.9,2.7,86,0.00,,---,0.00,VWS V14.01,2013-03-08 12:30:00,
2013-03-08 04:35:00,38.5,35.0,29.82,ESE,112,2.5,2.7,87,0.00,,---,0.00,VWS V14.01,2013-03-08 12:35:00,
2013-03-08 04:40:00,38.5,35.0,29.82,ESE,112,2.5,2.9,87,0.00,,---,0.00,VWS V14.01,2013-03-08 12:40:00,
2013-03-08 04:45:00,38.7,35.1,29.82,SE,135,1.6,2.9,87,0.00,,---,0.00,VWS V14.01,2013-03-08 12:45:00,
2013-03-08 04:50:00,38.5,35.0,29.82,ESE,112,2.5,2.5,87,0.00,,---,0.00,VWS V14.01,2013-03-08 12:50:00,
2013-03-08 04:55:00,38.5,35.0,29.82,SSE,158,1.1,2.5,87,0.00,,---,0.00,VWS V14.01,2013-03-08 12:55:00,
2013-03-08 05:00:00,38.5,35.0,29.82,SE,135,1.6,2.2,87,0.00,,---,0.00,VWS V14.01,2013-03-08 13:00:00,
2013-03-08 05:05:00,38.5,35.0,29.82,SE,135,2.0,2.5,87,0.00,,---,0.00,VWS V14.01,2013-03-08 13:05:00,
2013-03-08 05:10:00,38.3,34.8,29.82,SE,135,2.2,2.2,87,0.00,,---,0.00,VWS V14.01,2013-03-08 13:10:00,
2013-03-08 05:15:00,38.3,34.8,29.82,ENE,68,1.6,2.7,87,0.00,,---,0.00,VWS V14.01,2013-03-08 13:15:00,
2013-03-08 05:20:00,38.3,34.8,29.82,East,90,2.0,2.5,87,0.00,,---,0.00,VWS V14.01,2013-03-08 13:20:00,
2013-03-08 05:25:00,38.3,34.8,29.82,SE,135,1.3,2.2,87,0.00,,---,0.00,VWS V14.01,2013-03-08 13:25:00,
2013-03-08 05:30:00,38.1,34.6,29.82,ESE,112,1.3,2.2,87,0.00,,---,0.00,VWS V14.01,2013-03-08 13:30:00,
2013-03-08 05:35:00,38.1,34.6,29.82,ESE,112,1.3,2.2,87,0.00,,---,0.00,VWS V14.01,2013-03-08 13:35:00,
2013-03-08 05:40:00,37.9,34.4,29.82,NE,45,0.0,2.2,87,0.00,,---,0.00,VWS V14.01,2013-03-08 13:40:00,
2013-03-08 05:45:00,37.9,34.4,29.82,East,90,2.0,2.5,87,0.00,,---,0.00,VWS V14.01,2013-03-08 13:45:00,
2013-03-08 05:51:00,37.9,34.4,29.82,ESE,112,0.0,1.3,87,0.00,,---,0.00,VWS V14.01,2013-03-08 13:51:00,
2013-03-08 05:56:00,37.8,34.2,29.82,SE,135,0.0,0.0,87,0.00,,---,0.00,VWS V14.01,2013-03-08 13:56:00,
2013-03-08 06:01:00,37.8,34.2,29.82,West,270,0.0,1.6,87,0.00,,---,0.00,VWS V14.01,2013-03-08 14:01:00,
2013-03-08 06:06:00,37.6,34.1,29.82,NE,45,0.0,0.9,87,0.00,,---,0.00,VWS V14.01,2013-03-08 14:06:00,
2013-03-08 06:11:00,37.4,33.9,29.82,NNW,338,0.0,0.0,87,0.00,,---,0.00,VWS V14.01,2013-03-08 14:11:00,
2013-03-08 06:16:00,37.4,33.9,29.82,NNW,338,0.0,2.2,87,0.00,,---,0.00,VWS V14.01,2013-03-08 14:16:00,
2013-03-08 06:21:00,37.2,34.0,29.82,SE,135,1.6,1.6,88,0.00,,---,0.00,VWS V14.01,2013-03-08 14:21:00,
2013-03-08 06:26:00,37.0,33.8,29.82,SE,135,0.0,1.6,88,0.00,,---,0.00,VWS V14.01,2013-03-08 14:26:00,
2013-03-08 06:31:00,37.0,33.8,29.82,ESE,112,0.0,1.1,88,0.00,,---,0.00,VWS V14.01,2013-03-08 14:31:00,
2013-03-08 06:36:00,37.0,33.8,29.82,ESE,112,2.5,2.7,88,0.00,,---,0.00,VWS V14.01,2013-03-08 14:36:00,
2013-03-08 06:41:00,37.0,33.8,29.82,ENE,68,1.1,1.3,88,0.00,,---,0.00,VWS V14.01,2013-03-08 14:41:00,
2013-03-08 06:46:00,36.9,33.7,29.82,NNE,22,0.0,0.0,88,0.00,,---,0.00,VWS V14.01,2013-03-08 14:46:00,
2013-03-08 06:51:00,36.9,33.7,29.82,SW,225,1.1,1.1,88,0.00,,---,0.00,VWS V14.01,2013-03-08 14:51:00,
2013-03-08 06:56:00,36.9,33.7,29.82,SE,135,0.0,2.5,88,0.00,,---,0.00,VWS V14.01,2013-03-08 14:56:00,
2013-03-08 07:01:00,36.9,33.7,29.82,SE,135,0.0,0.0,88,0.00,,---,0.00,VWS V14.01,2013-03-08 15:01:00,
2013-03-08 07:06:00,37.0,33.8,29.82,ESE,112,2.7,3.4,88,0.00,,---,0.00,VWS V14.01,2013-03-08 15:06:00,
2013-03-08 07:11:00,37.0,33.8,29.82,South,180,0.0,2.0,88,0.00,,---,0.00,VWS V14.01,2013-03-08 15:11:00,
2013-03-08 07:16:00,37.0,33.8,29.82,South,180,0.0,1.1,88,0.00,,---,0.00,VWS V14.01,2013-03-08 15:16:00,
2013-03-08 07:21:00,36.9,33.7,29.82,ENE,68,1.3,1.3,88,0.00,,---,0.00,VWS V14.01,2013-03-08 15:21:00,
2013-03-08 07:26:00,36.9,33.7,29.82,South,180,0.0,1.3,88,0.00,,---,0.00,VWS V14.01,2013-03-08 15:26:00,
2013-03-08 07:31:00,36.9,33.7,29.82,ESE,112,1.1,2.2,88,0.00,,---,0.00,VWS V14.01,2013-03-08 15:31:00,
2013-03-08 07:36:00,37.0,33.8,29.85,SE,135,1.3,1.6,88,0.00,,---,0.00,VWS V14.01,2013-03-08 15:36:00,
2013-03-08 07:41:00,37.0,33.8,29.85,SE,135,1.1,2.0,88,0.00,,---,0.00,VWS V14.01,2013-03-08 15:41:00,
2013-03-08 07:46:00,37.2,34.0,29.85,SE,135,0.9,2.5,88,0.00,,---,0.00,VWS V14.01,2013-03-08 15:46:00,
2013-03-08 07:51:00,37.4,33.9,29.85,SSE,158,1.3,2.0,87,0.00,,---,0.00,VWS V14.01,2013-03-08 15:51:00,
2013-03-08 07:56:00,37.4,33.9,29.85,South,180,1.3,1.3,87,0.00,,---,0.00,VWS V14.01,2013-03-08 15:56:00,
2013-03-08 08:01:00,37.6,34.1,29.85,South,180,1.1,2.7,87,0.00,,---,0.00,VWS V14.01,2013-03-08 16:01:00,
2013-03-08 08:06:00,37.9,34.4,29.85,South,180,1.6,2.0,87,0.00,,---,0.00,VWS V14.01,2013-03-08 16:06:00,
2013-03-08 08:11:00,37.9,34.4,29.85,South,180,0.0,2.2,87,0.00,,---,0.00,VWS V14.01,2013-03-08 16:11:00,
2013-03-08 08:16:00,38.3,34.8,29.85,SSE,158,2.7,2.9,87,0.00,,---,0.00,VWS V14.01,2013-03-08 16:16:00,
2013-03-08 08:21:00,39.0,35.5,29.85,South,180,2.2,2.9,87,0.00,,---,0.00,VWS V14.01,2013-03-08 16:21:00,
2013-03-08 08:26:00,39.2,35.4,29.85,SSE,158,1.6,3.6,86,0.00,,---,0.00,VWS V14.01,2013-03-08 16:26:00,
2013-03-08 08:31:00,39.4,35.5,29.85,NE,45,1.1,2.2,86,0.00,,---,0.00,VWS V14.01,2013-03-08 16:31:00,
2013-03-08 08:36:00,39.7,35.9,29.85,NNE,22,1.1,2.7,86,0.00,,---,0.00,VWS V14.01,2013-03-08 16:36:00,
2013-03-08 08:41:00,39.9,36.1,29.85,North,0,1.1,2.5,86,0.00,,---,0.00,VWS V14.01,2013-03-08 16:41:00,
2013-03-08 08:46:00,40.3,36.4,29.85,North,0,1.1,2.5,86,0.00,,---,0.00,VWS V14.01,2013-03-08 16:46:00,
2013-03-08 08:52:00,40.6,36.8,29.85,NNW,338,2.5,2.5,86,0.00,,---,0.00,VWS V14.01,2013-03-08 16:52:00,
2013-03-08 08:57:00,40.6,36.8,29.85,WNW,292,3.8,3.8,86,0.00,,---,0.00,VWS V14.01,2013-03-08 16:57:00,
2013-03-08 09:02:00,41.4,37.5,29.85,NNW,338,0.0,3.8,86,0.00,,---,0.00,VWS V14.01,2013-03-08 17:02:00,
2013-03-08 09:07:00,41.7,37.8,29.85,NNW,338,3.8,3.8,86,0.00,,---,0.00,VWS V14.01,2013-03-08 17:07:00,
2013-03-08 09:12:00,42.3,38.4,29.85,NW,315,0.0,0.0,86,0.00,,---,0.00,VWS V14.01,2013-03-08 17:12:00,
2013-03-08 09:17:00,42.4,38.6,29.85,NNW,338,4.3,4.3,86,0.00,,---,0.00,VWS V14.01,2013-03-08 17:17:00,
2013-03-08 09:22:00,42.8,38.6,29.85,WSW,248,0.0,4.3,85,0.00,,---,0.00,VWS V14.01,2013-03-08 17:22:00,
2013-03-08 09:27:00,43.3,39.1,29.85,West,270,0.9,2.5,85,0.00,,---,0.00,VWS V14.01,2013-03-08 17:27:00,
2013-03-08 09:32:00,44.1,39.8,29.85,NNW,338,2.5,3.6,85,0.00,,---,0.00,VWS V14.01,2013-03-08 17:32:00,
2013-03-08 09:37:00,44.6,40.1,29.85,West,270,1.3,3.6,84,0.00,,---,0.00,VWS V14.01,2013-03-08 17:37:00,
2013-03-08 09:42:00,45.1,40.6,29.85,WNW,292,3.1,4.3,84,0.00,,---,0.00,VWS V14.01,2013-03-08 17:42:00,
2013-03-08 09:47:00,45.9,41.3,29.85,NNW,338,3.6,3.6,84,0.00,,---,0.00,VWS V14.01,2013-03-08 17:47:00,
2013-03-08 09:52:00,46.2,41.7,29.85,NW,315,4.3,6.3,84,0.00,,---,0.00,VWS V14.01,2013-03-08 17:52:00,
2013-03-08 09:57:00,46.8,41.9,29.85,SE,135,3.1,3.1,83,0.00,,---,0.00,VWS V14.01,2013-03-08 17:57:00,
2013-03-08 10:02:00,47.3,42.4,29.85,NW,315,3.4,3.4,83,0.00,,---,0.00,VWS V14.01,2013-03-08 18:02:00,
2013-03-08 10:07:00,47.8,42.6,29.85,South,180,4.7,5.6,82,0.00,,---,0.00,VWS V14.01,2013-03-08 18:07:00,
2013-03-08 10:12:00,48.2,42.7,29.85,NW,315,3.4,3.4,81,0.00,,---,0.00,VWS V14.01,2013-03-08 18:12:00,
2013-03-08 10:17:00,48.7,43.2,29.85,West,270,5.8,5.8,81,0.00,,---,0.00,VWS V14.01,2013-03-08 18:17:00,
2013-03-08 10:22:00,48.9,43.3,29.85,West,270,3.8,3.8,81,0.00,,---,0.00,VWS V14.01,2013-03-08 18:22:00,
2013-03-08 10:27:00,49.3,43.7,29.85,WNW,292,2.9,2.9,81,0.00,,---,0.00,VWS V14.01,2013-03-08 18:27:00,
2013-03-08 10:32:00,50.0,44.1,29.85,NW,315,3.4,3.8,80,0.00,,---,0.00,VWS V14.01,2013-03-08 18:32:00,
2013-03-08 10:37:00,50.4,44.1,29.85,NNW,338,6.3,6.3,79,0.00,,---,0.00,VWS V14.01,2013-03-08 18:37:00,
2013-03-08 10:42:00,50.9,44.6,29.85,West,270,4.3,4.3,79,0.00,,---,0.00,VWS V14.01,2013-03-08 18:42:00,
2013-03-08 10:47:00,51.6,45.0,29.85,NW,315,5.8,5.8,78,0.00,,---,0.00,VWS V14.01,2013-03-08 18:47:00,
2013-03-08 10:52:00,51.8,45.2,29.85,NNW,338,2.7,2.7,78,0.00,,---,0.00,VWS V14.01,2013-03-08 18:52:00,
2013-03-08 10:57:00,52.0,45.3,29.85,West,270,3.6,3.6,78,0.00,,---,0.00,VWS V14.01,2013-03-08 18:57:00,
2013-03-08 11:02:00,52.5,45.5,29.85,West,270,5.4,5.6,77,0.00,,---,0.00,VWS V14.01,2013-03-08 19:02:00,
2013-03-08 11:07:00,53.2,46.2,29.85,SW,225,4.9,4.9,77,0.00,,---,0.00,VWS V14.01,2013-03-08 19:07:00,
2013-03-08 11:12:00,53.6,46.2,29.85,NNW,338,2.7,2.7,76,0.00,,---,0.00,VWS V14.01,2013-03-08 19:12:00,
2013-03-08 11:17:00,54.5,46.8,29.85,WSW,248,3.8,3.8,75,0.00,,---,0.00,VWS V14.01,2013-03-08 19:17:00,
2013-03-08 11:22:00,55.2,47.5,29.85,WSW,248,3.4,3.8,75,0.00,,---,0.00,VWS V14.01,2013-03-08 19:22:00,
2013-03-08 11:27:00,55.6,47.4,29.85,NW,315,3.8,5.8,74,0.00,,---,0.00,VWS V14.01,2013-03-08 19:27:00,
2013-03-08 11:32:00,56.1,48.0,29.85,West,270,3.6,5.8,74,0.00,,---,0.00,VWS V14.01,2013-03-08 19:32:00,
2013-03-08 11:37:00,56.7,48.1,29.85,West,270,5.6,5.6,73,0.00,,---,0.00,VWS V14.01,2013-03-08 19:37:00,
2013-03-08 11:42:00,57.6,48.6,29.85,WNW,292,3.6,5.8,72,0.00,,---,0.00,VWS V14.01,2013-03-08 19:42:00,
2013-03-08 11:47:00,58.3,48.9,29.85,NW,315,5.4,5.4,71,0.00,,---,0.00,VWS V14.01,2013-03-08 19:47:00,
2013-03-08 11:52:00,58.8,49.5,29.85,WNW,292,3.1,3.1,71,0.00,,---,0.00,VWS V14.01,2013-03-08 19:52:00,
2013-03-08 11:57:00,59.2,49.4,29.85,West,270,2.9,3.1,70,0.00,,---,0.00,VWS V14.01,2013-03-08 19:57:00,
2013-03-08 12:02:00,59.7,49.9,29.85,ENE,68,1.3,1.3,70,0.00,,---,0.00,VWS V14.01,2013-03-08 20:02:00,
2013-03-08 12:08:00,60.4,50.2,29.85,NNW,338,3.8,3.8,69,0.00,,---,0.00,VWS V14.01,2013-03-08 20:08:00,
2013-03-08 12:13:00,60.8,50.2,29.85,NNW,338,8.5,8.5,68,0.00,,---,0.00,VWS V14.01,2013-03-08 20:13:00,
2013-03-08 12:18:00,61.5,49.7,29.85,SW,225,3.6,3.6,65,0.00,,---,0.00,VWS V14.01,2013-03-08 20:18:00,
2013-03-08 12:23:00,62.1,50.2,29.82,NW,315,4.9,4.9,65,0.00,,---,0.00,VWS V14.01,2013-03-08 20:23:00,
2013-03-08 12:28:00,62.2,50.3,29.82,NW,315,5.4,5.4,65,0.00,,---,0.00,VWS V14.01,2013-03-08 20:28:00,
2013-03-08 12:33:00,63.0,50.2,29.82,WNW,292,3.1,6.0,63,0.00,,---,0.00,VWS V14.01,2013-03-08 20:33:00,
2013-03-08 12:38:00,63.1,50.3,29.82,NNW,338,2.0,2.0,63,0.00,,---,0.00,VWS V14.01,2013-03-08 20:38:00,
2013-03-08 12:43:00,63.7,50.9,29.82,NNW,338,2.0,2.0,63,0.00,,---,0.00,VWS V14.01,2013-03-08 20:43:00,
2013-03-08 12:48:00,64.0,50.8,29.82,NNW,338,2.0,2.0,62,0.00,,---,0.00,VWS V14.01,2013-03-08 20:48:00,
2013-03-08 12:53:00,64.6,50.8,29.82,NNW,338,2.0,2.0,61,0.00,,---,0.00,VWS V14.01,2013-03-08 20:53:00,
2013-03-08 12:58:00,64.9,51.6,29.82,NNW,338,2.0,2.0,62,0.00,,---,0.00,VWS V14.01,2013-03-08 20:58:00,
2013-03-08 13:03:00,65.5,50.8,29.82,NNW,338,2.0,2.0,59,0.00,,---,0.00,VWS V14.01,2013-03-08 21:03:00,
2013-03-08 13:08:00,65.7,50.5,29.82,NNW,338,2.0,2.0,58,0.00,,---,0.00,VWS V14.01,2013-03-08 21:08:00,
2013-03-08 13:13:00,66.2,50.5,29.82,NNW,338,2.0,2.0,57,0.00,,---,0.00,VWS V14.01,2013-03-08 21:13:00,
2013-03-08 13:18:00,66.4,51.2,29.82,NNW,338,2.0,2.0,58,0.00,,---,0.00,VWS V14.01,2013-03-08 21:18:00,
2013-03-08 13:23:00,66.6,50.9,29.82,NNW,338,2.0,2.0,57,0.00,,---,0.00,VWS V14.01,2013-03-08 21:23:00,
2013-03-08 13:28:00,66.9,51.2,29.82,NNW,338,2.0,2.0,57,0.00,,---,0.00,VWS V14.01,2013-03-08 21:28:00,
2013-03-08 13:33:00,67.1,50.4,29.82,NNW,338,2.0,2.0,55,0.00,,---,0.00,VWS V14.01,2013-03-08 21:33:00,
2013-03-08 13:38:00,67.1,50.4,29.82,NNW,338,2.0,2.0,55,0.00,,---,0.00,VWS V14.01,2013-03-08 21:38:00,
2013-03-08 13:43:00,67.5,51.7,29.82,NNW,338,2.0,2.0,57,0.00,,---,0.00,VWS V14.01,2013-03-08 21:43:00,
2013-03-08 13:48:00,67.8,51.1,29.79,NNW,338,2.0,2.0,55,0.00,,---,0.00,VWS V14.01,2013-03-08 21:48:00,
2013-03-08 13:53:00,67.6,50.9,29.79,NNW,338,2.0,2.0,55,0.00,,---,0.00,VWS V14.01,2013-03-08 21:53:00,
2013-03-08 13:58:00,67.8,51.1,29.79,NNW,338,2.0,2.0,55,0.00,,---,0.00,VWS V14.01,2013-03-08 21:58:00,
2013-03-08 14:03:00,68.0,50.2,29.79,NNW,338,2.0,2.0,53,0.00,,---,0.00,VWS V14.01,2013-03-08 22:03:00,
2013-03-08 14:09:00,68.2,50.4,29.79,NNW,338,2.0,2.0,53,0.00,,---,0.00,VWS V14.01,2013-03-08 22:09:00,
2013-03-08 14:14:00,68.2,50.4,29.79,NNW,338,2.0,2.0,53,0.00,,---,0.00,VWS V14.01,2013-03-08 22:14:00,
2013-03-08 14:19:00,68.4,50.6,29.79,NNW,338,2.0,2.0,53,0.00,,---,0.00,VWS V14.01,2013-03-08 22:19:00,
2013-03-08 14:24:00,68.5,50.2,29.79,NNW,338,2.0,2.0,52,0.00,,---,0.00,VWS V14.01,2013-03-08 22:24:00,
2013-03-08 14:29:00,68.9,51.1,29.79,NNW,338,2.0,2.0,53,0.00,,---,0.00,VWS V14.01,2013-03-08 22:29:00,
2013-03-08 14:34:00,68.9,51.1,29.79,NNW,338,2.0,2.0,53,0.00,,---,0.00,VWS V14.01,2013-03-08 22:34:00,
2013-03-08 14:39:00,68.7,50.9,29.79,NNW,338,2.0,2.0,53,0.00,,---,0.00,VWS V14.01,2013-03-08 22:39:00,
2013-03-08 14:44:00,69.1,51.2,29.79,NNW,338,2.0,2.0,53,0.00,,---,0.00,VWS V14.01,2013-03-08 22:44:00,
2013-03-08 14:49:00,69.3,51.4,29.82,NNW,338,2.0,2.0,53,0.00,,---,0.00,VWS V14.01,2013-03-08 22:49:00,
2013-03-08 14:54:00,69.3,50.9,29.82,NNW,338,2.0,2.0,52,0.00,,---,0.00,VWS V14.01,2013-03-08 22:54:00,
2013-03-08 14:59:00,68.9,50.0,29.82,NNW,338,2.0,2.0,51,0.00,,---,0.00,VWS V14.01,2013-03-08 22:59:00,
2013-03-08 15:04:00,68.7,50.4,29.82,NNW,338,2.0,2.0,52,0.00,,---,0.00,VWS V14.01,2013-03-08 23:04:00,
2013-03-08 15:09:00,68.9,50.6,29.82,NNW,338,2.0,2.0,52,0.00,,---,0.00,VWS V14.01,2013-03-08 23:09:00,
2013-03-08 15:14:00,69.3,50.9,29.82,NNW,338,2.0,2.0,52,0.00,,---,0.00,VWS V14.01,2013-03-08 23:14:00,
2013-03-08 15:19:00,69.3,50.9,29.82,NNW,338,2.0,2.0,52,0.00,,---,0.00,VWS V14.01,2013-03-08 23:19:00,
2013-03-08 15:24:00,68.9,49.5,29.82,NNW,338,2.0,2.0,50,0.00,,---,0.00,VWS V14.01,2013-03-08 23:24:00,
2013-03-08 15:29:00,68.9,49.5,29.82,NNW,338,2.0,2.0,50,0.00,,---,0.00,VWS V14.01,2013-03-08 23:29:00,
2013-03-08 15:34:00,68.4,49.0,29.82,NNW,338,2.0,2.0,50,0.00,,---,0.00,VWS V14.01,2013-03-08 23:34:00,
2013-03-08 15:39:00,68.0,49.7,29.82,NNW,338,2.0,2.0,52,0.00,,---,0.00,VWS V14.01,2013-03-08 23:39:00,
2013-03-08 15:44:00,67.3,48.0,29.82,NNW,338,2.0,2.0,50,0.00,,---,0.00,VWS V14.01,2013-03-08 23:44:00,
2013-03-08 15:49:00,66.9,47.7,29.82,NNW,338,2.0,2.0,50,0.00,,---,0.00,VWS V14.01,2013-03-08 23:49:00,
2013-03-08 15:54:00,66.7,48.1,29.82,NNW,338,2.0,2.0,51,0.00,,---,0.00,VWS V14.01,2013-03-08 23:54:00,
2013-03-08 15:59:00,66.4,48.2,29.82,NNW,338,2.0,2.0,52,0.00,,---,0.00,VWS V14.01,2013-03-08 23:59:00,
2013-03-08 16:04:00,65.8,47.7,29.82,NNW,338,2.0,2.0,52,0.00,,---,0.00,VWS V14.01,2013-03-09 00:04:00,
2013-03-08 16:09:00,65.1,47.1,29.82,NNW,338,2.0,2.0,52,0.00,,---,0.00,VWS V14.01,2013-03-09 00:09:00,
2013-03-08 16:14:00,64.4,46.4,29.82,NNW,338,2.0,2.0,52,0.00,,---,0.00,VWS V14.01,2013-03-09 00:14:00,
2013-03-08 16:19:00,63.9,46.4,29.82,NNW,338,2.0,2.0,53,0.00,,---,0.00,VWS V14.01,2013-03-09 00:19:00,
2013-03-08 16:24:00,63.3,45.9,29.82,NNW,338,2.0,2.0,53,0.00,,---,0.00,VWS V14.01,2013-03-09 00:24:00,
2013-03-08 16:29:00,62.6,44.8,29.82,NNW,338,2.0,2.0,52,0.00,,---,0.00,VWS V14.01,2013-03-09 00:29:00,
2013-03-08 16:34:00,62.1,45.2,29.82,NNW,338,2.0,2.0,54,0.00,,---,0.00,VWS V14.01,2013-03-09 00:34:00,
2013-03-08 16:40:00,61.5,44.7,29.82,NNW,338,2.0,2.0,54,0.00,,---,0.00,VWS V14.01,2013-03-09 00:40:00,
2013-03-08 16:45:00,61.2,44.9,29.82,NNW,338,2.0,2.0,55,0.00,,---,0.00,VWS V14.01,2013-03-09 00:45:00,
2013-03-08 16:50:00,60.8,44.5,29.82,NNW,338,2.0,2.0,55,0.00,,---,0.00,VWS V14.01,2013-03-09 00:50:00,
2013-03-08 16:55:00,60.3,44.5,29.82,NNW,338,2.0,2.0,56,0.00,,---,0.00,VWS V14.01,2013-03-09 00:55:00,
2013-03-08 17:00:00,59.9,44.7,29.82,NNW,338,2.0,2.0,57,0.00,,---,0.00,VWS V14.01,2013-03-09 01:00:00,
2013-03-08 17:05:00,59.7,44.5,29.82,NNW,338,2.0,2.0,57,0.00,,---,0.00,VWS V14.01,2013-03-09 01:05:00,
2013-03-08 17:10:00,59.4,44.6,29.82,NNW,338,2.0,2.0,58,0.00,,---,0.00,VWS V14.01,2013-03-09 01:10:00,
2013-03-08 17:15:00,59.0,44.7,29.82,NNW,338,2.0,2.0,59,0.00,,---,0.00,VWS V14.01,2013-03-09 01:15:00,
2013-03-08 17:20:00,58.8,45.0,29.85,NNW,338,2.0,2.0,60,0.00,,---,0.00,VWS V14.01,2013-03-09 01:20:00,
2013-03-08 17:25:00,58.5,44.6,29.85,NNW,338,2.0,2.0,60,0.00,,---,0.00,VWS V14.01,2013-03-09 01:25:00,
2013-03-08 17:30:00,58.1,44.7,29.85,NNW,338,2.0,2.0,61,0.00,,---,0.00,VWS V14.01,2013-03-09 01:30:00,
2013-03-08 17:35:00,57.7,44.4,29.85,NNW,338,2.0,2.0,61,0.00,,---,0.00,VWS V14.01,2013-03-09 01:35:00,
2013-03-08 17:40:00,57.6,44.2,29.85,NNW,338,2.0,2.0,61,0.00,,---,0.00,VWS V14.01,2013-03-09 01:40:00,
2013-03-08 17:45:00,57.2,43.5,29.85,NNW,338,2.0,2.0,60,0.00,,---,0.00,VWS V14.01,2013-03-09 01:45:00,
2013-03-08 17:50:00,56.7,43.8,29.85,NNW,338,2.0,2.0,62,0.00,,---,0.00,VWS V14.01,2013-03-09 01:50:00,
2013-03-08 17:55:00,56.3,43.5,29.85,NNW,338,2.0,2.0,62,0.00,,---,0.00,VWS V14.01,2013-03-09 01:55:00,
2013-03-08 18:00:00,56.1,43.7,29.85,NNW,338,2.0,2.0,63,0.00,,---,0.00,VWS V14.01,2013-03-09 02:00:00,
2013-03-08 18:05:00,55.6,43.6,29.88,NNW,338,2.0,2.0,64,0.00,,---,0.00,VWS V14.01,2013-03-09 02:05:00,
2013-03-08 18:10:00,55.4,43.4,29.88,NNW,338,2.0,2.0,64,0.00,,---,0.00,VWS V14.01,2013-03-09 02:10:00,
2013-03-08 18:15:00,55.0,43.5,29.88,NNW,338,2.0,2.0,65,0.00,,---,0.00,VWS V14.01,2013-03-09 02:15:00,
2013-03-08 18:20:00,54.9,43.3,29.88,NNW,338,2.0,2.0,65,0.00,,---,0.00,VWS V14.01,2013-03-09 02:20:00,
2013-03-08 18:25:00,54.5,42.6,29.88,NNW,338,2.0,2.0,64,0.00,,---,0.00,VWS V14.01,2013-03-09 02:25:00,
2013-03-08 18:30:00,54.1,42.2,29.88,NNW,338,2.0,2.0,64,0.00,,---,0.00,VWS V14.01,2013-03-09 02:30:00,
2013-03-08 18:35:00,53.8,41.9,29.88,NNW,338,2.0,2.0,64,0.00,,---,0.00,VWS V14.01,2013-03-09 02:35:00,
2013-03-08 18:40:00,53.6,41.7,29.88,NNW,338,2.0,2.0,64,0.00,,---,0.00,VWS V14.01,2013-03-09 02:40:00,
2013-03-08 18:45:00,53.4,41.6,29.88,NNW,338,2.0,2.0,64,0.00,,---,0.00,VWS V14.01,2013-03-09 02:45:00,
2013-03-08 18:50:00,53.1,41.2,29.91,NNW,338,2.0,2.0,64,0.00,,---,0.00,VWS V14.01,2013-03-09 02:50:00,
2013-03-08 18:55:00,52.9,41.0,29.91,NNW,338,2.0,2.0,64,0.00,,---,0.00,VWS V14.01,2013-03-09 02:55:00,
2013-03-08 19:00:00,52.5,40.7,29.91,NNW,338,2.0,2.0,64,0.00,,---,0.00,VWS V14.01,2013-03-09 03:00:00,
2013-03-08 19:05:00,52.3,40.5,29.91,NNW,338,2.0,2.0,64,0.00,,---,0.00,VWS V14.01,2013-03-09 03:05:00,
2013-03-08 19:11:00,52.2,40.4,29.91,NW,315,4.7,5.6,64,0.00,,---,0.00,VWS V14.01,2013-03-09 03:11:00,
2013-03-08 19:16:00,52.0,40.2,29.91,NW,315,4.7,4.7,64,0.00,,---,0.00,VWS V14.01,2013-03-09 03:16:00,
2013-03-08 19:21:00,51.8,40.0,29.91,NW,315,4.7,4.7,64,0.00,,---,0.00,VWS V14.01,2013-03-09 03:21:00,
2013-03-08 19:26:00,51.6,40.2,29.91,NW,315,4.7,4.7,65,0.00,,---,0.00,VWS V14.01,2013-03-09 03:26:00,
2013-03-08 19:31:00,51.3,39.9,29.91,NW,315,4.7,4.7,65,0.00,,---,0.00,VWS V14.01,2013-03-09 03:31:00,
2013-03-08 19:36:00,51.1,39.7,29.91,NW,315,4.7,4.7,65,0.00,,---,0.00,VWS V14.01,2013-03-09 03:36:00,
2013-03-08 19:41:00,50.9,39.6,29.91,NW,315,4.7,4.7,65,0.00,,---,0.00,VWS V14.01,2013-03-09 03:41:00,
2013-03-08 19:46:00,50.5,39.2,29.91,NW,315,4.7,4.7,65,0.00,,---,0.00,VWS V14.01,2013-03-09 03:46:00,
2013-03-08 19:51:00,50.4,39.1,29.91,NW,315,4.7,4.7,65,0.00,,---,0.00,VWS V14.01,2013-03-09 03:51:00,
2013-03-08 19:56:00,50.2,38.9,29.91,NW,315,4.7,4.7,65,0.00,,---,0.00,VWS V14.01,2013-03-09 03:56:00,
2013-03-08 20:01:00,49.8,38.9,29.91,NW,315,4.7,4.7,66,0.00,,---,0.00,VWS V14.01,2013-03-09 04:01:00,
2013-03-08 20:06:00,49.6,39.2,29.94,NW,315,4.7,4.7,67,0.00,,---,0.00,VWS V14.01,2013-03-09 04:06:00,
2013-03-08 20:11:00,49.3,38.8,29.94,NW,315,4.7,4.7,67,0.00,,---,0.00,VWS V14.01,2013-03-09 04:11:00,
2013-03-08 20:16:00,49.1,38.6,29.94,South,180,0.0,4.7,67,0.00,,---,0.00,VWS V14.01,2013-03-09 04:16:00,
2013-03-08 20:21:00,48.9,38.5,29.94,South,180,0.0,0.0,67,0.00,,---,0.00,VWS V14.01,2013-03-09 04:21:00,
2013-03-08 20:26:00,48.7,38.3,29.94,South,180,2.2,2.2,67,0.00,,---,0.00,VWS V14.01,2013-03-09 04:26:00,
2013-03-08 20:31:00,48.6,38.5,29.94,NNE,22,0.0,2.2,68,0.00,,---,0.00,VWS V14.01,2013-03-09 04:31:00,
2013-03-08 20:36:00,48.4,38.3,29.94,NNE,22,0.0,0.0,68,0.00,,---,0.00,VWS V14.01,2013-03-09 04:36:00,
2013-03-08 20:41:00,48.2,38.2,29.94,NNE,22,0.0,0.0,68,0.00,,---,0.00,VWS V14.01,2013-03-09 04:41:00,
2013-03-08 20:46:00,48.0,38.3,29.94,East,90,1.6,1.6,69,0.00,,---,0.00,VWS V14.01,2013-03-09 04:46:00,
2013-03-08 20:51:00,47.8,38.5,29.94,SE,135,2.5,2.5,70,0.00,,---,0.00,VWS V14.01,2013-03-09 04:51:00,
2013-03-08 20:56:00,47.7,38.4,29.94,SE,135,2.5,2.5,70,0.00,,---,0.00,VWS V14.01,2013-03-09 04:56:00,
2013-03-08 21:01:00,47.3,38.0,29.94,South,180,0.0,2.5,70,0.00,,---,0.00,VWS V14.01,2013-03-09 05:01:00,
2013-03-08 21:02:00,47.3,38.0,29.94,SW,225,0.0,2.5,70,0.00,,---,0.00,VWS V14.01,2013-03-09 05:02:00,
2013-03-08 21:03:00,47.3,38.0,29.94,SW,225,0.0,0.0,70,0.00,,---,0.00,VWS V14.01,2013-03-09 05:03:00,
2013-03-08 21:08:00,47.3,38.0,29.97,ESE,112,1.3,1.3,70,0.00,,---,0.00,VWS V14.01,2013-03-09 05:08:00,
2013-03-08 21:13:00,47.1,37.8,29.97,SW,225,0.0,0.0,70,0.00,,---,0.00,VWS V14.01,2013-03-09 05:13:00,
2013-03-08 21:18:00,46.8,37.5,29.97,SE,135,0.0,0.0,70,0.00,,---,0.00,VWS V14.01,2013-03-09 05:18:00,
2013-03-08 21:23:00,46.8,37.5,29.97,ESE,112,1.3,1.3,70,0.00,,---,0.00,VWS V14.01,2013-03-09 05:23:00,
2013-03-08 21:28:00,46.6,37.3,29.97,ESE,112,2.2,2.2,70,0.00,,---,0.00,VWS V14.01,2013-03-09 05:28:00,
2013-03-08 21:33:00,46.4,37.5,29.97,East,90,2.0,2.0,71,0.00,,---,0.00,VWS V14.01,2013-03-09 05:33:00,
2013-03-08 21:38:00,46.4,37.5,29.97,NNW,338,1.3,1.3,71,0.00,,---,0.00,VWS V14.01,2013-03-09 05:38:00,
2013-03-08 21:43:00,46.2,37.3,29.97,North,0,0.0,0.0,71,0.00,,---,0.00,VWS V14.01,2013-03-09 05:43:00,
2013-03-08 21:48:00,46.0,37.2,29.97,NE,45,1.1,1.1,71,0.00,,---,0.00,VWS V14.01,2013-03-09 05:48:00,
2013-03-08 21:53:00,45.9,37.0,29.97,WNW,292,0.9,0.9,71,0.00,,---,0.00,VWS V14.01,2013-03-09 05:53:00,
2013-03-08 21:58:00,45.9,37.0,29.97,NE,45,1.6,1.6,71,0.00,,---,0.00,VWS V14.01,2013-03-09 05:58:00,
2013-03-08 22:03:00,45.7,36.8,29.97,NNE,22,0.0,0.0,71,0.00,,---,0.00,VWS V14.01,2013-03-09 06:03:00,
2013-03-08 22:08:00,45.5,37.0,30.00,NNE,22,0.0,0.0,72,0.00,,---,0.00,VWS V14.01,2013-03-09 06:08:00,
2013-03-08 22:13:00,45.5,37.0,30.00,North,0,2.9,2.9,72,0.00,,---,0.00,VWS V14.01,2013-03-09 06:13:00,
2013-03-08 22:18:00,45.5,37.0,30.00,NNE,22,1.6,1.6,72,0.00,,---,0.00,VWS V14.01,2013-03-09 06:18:00,
2013-03-08 22:23:00,45.3,36.8,30.00,NNW,338,1.1,2.2,72,0.00,,---,0.00,VWS V14.01,2013-03-09 06:23:00,
2013-03-08 22:28:00,45.3,36.8,30.00,North,0,2.5,2.5,72,0.00,,---,0.00,VWS V14.01,2013-03-09 06:28:00,
2013-03-08 22:33:00,45.1,36.7,30.00,North,0,0.0,0.0,72,0.00,,---,0.00,VWS V14.01,2013-03-09 06:33:00,
2013-03-08 22:38:00,45.0,36.5,30.00,North,0,1.3,1.3,72,0.00,,---,0.00,VWS V14.01,2013-03-09 06:38:00,
2013-03-08 22:43:00,45.0,36.5,30.00,NE,45,3.4,3.4,72,0.00,,---,0.00,VWS V14.01,2013-03-09 06:43:00,
2013-03-08 22:48:00,44.8,36.7,30.00,North,0,2.0,2.0,73,0.00,,---,0.00,VWS V14.01,2013-03-09 06:48:00,
2013-03-08 22:53:00,44.8,36.7,30.00,NNE,22,2.5,2.5,73,0.00,,---,0.00,VWS V14.01,2013-03-09 06:53:00,
2013-03-08 22:58:00,44.8,36.7,30.00,NNE,22,2.9,2.9,73,0.00,,---,0.00,VWS V14.01,2013-03-09 06:58:00,
2013-03-08 23:03:00,44.8,36.7,30.00,NNW,338,2.7,2.9,73,0.00,,---,0.00,VWS V14.01,2013-03-09 07:03:00,
2013-03-08 23:08:00,44.6,36.5,30.00,North,0,2.5,2.5,73,0.00,,---,0.00,VWS V14.01,2013-03-09 07:08:00,
2013-03-08 23:13:00,44.6,36.5,30.00,North,0,3.1,3.1,73,0.00,,---,0.00,VWS V14.01,2013-03-09 07:13:00,
2013-03-08 23:18:00,44.6,36.5,30.00,NNW,338,2.9,2.9,73,0.00,,---,0.00,VWS V14.01,2013-03-09 07:18:00,
2013-03-08 23:23:00,44.6,36.5,30.00,NNW,338,2.0,2.0,73,0.00,,---,0.00,VWS V14.01,2013-03-09 07:23:00,
2013-03-08 23:28:00,44.4,36.7,30.00,West,270,2.5,2.5,74,0.00,,---,0.00,VWS V14.01,2013-03-09 07:28:00,
2013-03-08 23:33:00,44.2,36.5,30.00,NNE,22,1.6,2.5,74,0.00,,---,0.00,VWS V14.01,2013-03-09 07:33:00,
2013-03-08 23:38:00,44.2,36.5,30.00,NW,315,0.0,1.6,74,0.00,,---,0.00,VWS V14.01,2013-03-09 07:38:00,
2013-03-08 23:43:00,44.1,36.3,30.00,North,0,0.0,0.0,74,0.00,,---,0.00,VWS V14.01,2013-03-09 07:43:00,
2013-03-08 23:48:00,43.7,36.0,30.00,NE,45,0.0,0.0,74,0.00,,---,0.00,VWS V14.01,2013-03-09 07:48:00,
2013-03-08 23:53:00,43.7,36.0,30.00,NNW,338,2.5,2.5,74,0.00,,---,0.00,VWS V14.01,2013-03-09 07:53:00,
2013-03-08 23:58:00,43.5,35.8,30.00,NNW,338,2.5,2.5,74,0.00,,---,0.00,VWS V14.01,2013-03-09 07:58:00,